User: anonymous   Login
Location: Kuffner-Sternwarte
(48.2130°N, 16.2960°E)
Time: 02:41:48
(UTC+02:00)
Language:

ZACube-1 - Orbit

View from above orbital plane
View from above orbital plane
View from above satellite
View from above satellite

Ground track
Ground track

The orbit data is extracted from the following two-line orbital elements,

1 39417U 13066B   19177.00129961  .00000129  00000-0  22592-4 0  9999
2 39417  97.5618 190.0920 0059294  11.6327 348.6240 14.81116794302129
Epoch (UTC): 26 June 2019 00:01:52
Eccentricity: 0.0059294
inclination: 97.5618°
perigee height: 584 km
apogee height: 667 km
right ascension of ascending node: 190.0920°
argument of perigee: 11.6327°
revolutions per day: 14.81116794
mean anomaly at epoch: 348.6240°
orbit number at epoch: 30212

The dashed part of the orbit path shows where the satellite is in the earth's shadow,  

DLR